Location: Amsterdam
(30.7274°N, 84.4357°W)
Time: 08:34:56
(UTC+00:00)

Tiros 1 despin weight - Pass Details

Date: 25 February 2026
Orbit: 556 x 593 km, 48.2° (Epoch: 12 March)

Event Time Altitude Azimuth Distance (km) Brightness Sun altitude
Rises 01:31:04 0° 297° (WNW) 2,728 ? -26.1°
Reaches altitude 10° 01:33:35 10° 285° (WNW) 1,832 ? -26.7°
Maximum altitude 01:37:02 25° 228° (SW) 1,128 ? -27.4°
Enters shadow 01:37:37 25° 215° (SW) 1,153 ? -27.5°
Drops below altitude 10° 01:40:31 10° 172° (S) 1,835 - -28.2°
Sets 01:43:03 0° 159° (SSE) 2,733 - -28.7°
